SM7GXQ Weather Reports


Display with metric or nautical units.
time (UTC)temp
F
wind
direction
speed
MPH
gust
MPH
rain 1hr
in
rain 24hr
in
rain mn
in
humidity
%
barometer
mb
20240225201503 39 113 5.0 8.0 0.00 0.03 0.01 93 1005.6
20240225200004 39 98 6.0 9.0 0.00 0.03 0.01 93 1006.0
20240225194503 39 114 6.0 12.0 0.00 0.03 0.01 93 1006.0
20240225193003 39 126 5.0 9.0 0.00 0.03 0.01 93 1006.1
20240225191503 39 113 5.0 9.0 0.00 0.03 0.01 93 1006.1
20240225184504 39 120 6.0 12.0 0.00 0.03 0.01 92 1006.3
20240225183004 39 115 5.0 9.0 0.00 0.03 0.01 92 1006.7
20240225180003 40 122 4.0 9.0 0.00 0.03 0.01 91 1006.7
20240225174503 39 123 2.0 7.0 0.00 0.03 0.01 91 1007.0
20240225173004 40 121 5.0 9.0 0.00 0.03 0.01 91 1007.0
20240225171505 40 132 5.0 8.0 0.00 0.03 0.01 91 1007.3
20240225163005 40 84 3.0 8.0 0.00 0.03 0.01 89 1006.8
20240225160004 41 110 3.0 9.0 0.00 0.03 0.01 87 1006.8
20240225153004 43 138 3.0 8.0 0.00 0.03 0.01 84 1006.8
20240225150003 44 102 1.0 7.0 0.00 0.03 0.01 81 1006.7
20240225141503 45 137 6.0 10.0 0.00 0.03 0.01 82 1006.6
20240225134504 46 122 5.0 15.0 0.00 0.03 0.01 81 1006.7
20240225121504 46 176 3.0 8.0 0.00 0.03 0.01 78 1007.3
20240225113003 44 185 4.0 10.0 0.00 0.03 0.01 81 1007.4
20240225111503 43 198 5.0 9.0 0.00 0.03 0.01 82 1007.4
20240225104503 43 178 6.0 9.0 0.00 0.03 0.01 84 1007.6
20240225103004 42 178 3.0 9.0 0.00 0.03 0.01 84 1007.5
20240225084504 42 187 4.0 13.0 0.00 0.03 0.01 84 1007.3
20240225083003 43 190 6.0 14.0 0.00 0.03 0.01 83 1007.3
20240225081503 43 187 5.0 12.0 0.00 0.03 0.01 83 1007.1
20240225080003 42 185 5.0 12.0 0.00 0.03 0.01 85 1007.2
20240225073003 40 171 5.0 9.0 0.00 0.03 0.01 89 1007.0
20240225064504 37 175 3.0 9.0 0.00 0.03 0.01 94 1006.7
20240225063003 37 171 5.0 6.0 0.00 0.03 0.01 94 1006.7
20240225061503 37 163 2.0 3.0 0.00 0.03 0.01 94 1006.8
20240225060003 37 159 2.0 5.0 0.00 0.03 0.01 93 1006.6
20240225053003 38 182 2.0 7.0 0.00 0.03 0.01 92 1006.4
20240225050003 39 192 4.0 9.0 0.00 0.03 0.01 92 1006.1
20240225041505 40 192 5.0 12.0 0.00 0.03 0.01 90 1005.9
20240225034506 40 191 6.0 14.0 0.00 0.03 0.01 89 1005.8
20240225033003 40 184 5.0 12.0 0.00 0.03 0.01 89 1005.8
20240225031504 41 191 7.0 14.0 0.00 0.03 0.01 89 1005.8
20240225024504 41 181 6.0 12.0 0.00 0.03 0.01 89 1005.8
20240225023004 41 186 6.0 13.0 0.00 0.03 0.01 89 1005.7
20240225013004 39 158 5.0 12.0 0.01 0.03 0.01 92 1004.9
20240225011503 39 154 6.0 9.0 0.01 0.03 0.01 92 1004.9
20240225010004 38 144 5.0 9.0 0.01 0.03 0.01 92 1004.9
20240225000010 38 146 3.0 7.0 0.00 0.02 0.00 93 1005.1
20240224234503 38 156 4.0 7.0 0.00 0.02 0.00 93 1004.6
20240224231504 39 156 1.0 6.0 0.00 0.02 0.00 93 1004.6
20240224223004 40 130 3.0 7.0 0.02 0.02 0.02 93 1005.0
20240224221507 40 152 3.0 8.0 0.02 0.02 0.02 93 1005.0
20240224220004 40 133 3.0 5.0 0.02 0.02 0.02 92 1005.0
20240224211504 38 131 3.0 5.0 0.00 0.00 0.00 89 1004.5
20240224210005 38 145 1.0 5.0 0.00 0.00 0.00 89 1004.5
20240224204503 39 149 2.0 7.0 0.00 0.00 0.00 89 1004.5